#timestamp,LO_Frequency,Hit,StdDev 
1507273215.8,286046998.5,N
1507273235.7,286047001.9,N
1507273255.5,286047003.9,N
1507273275.3,286047001.1,N
1507273295.2,286046997.1,N
1507273315.9,286046997.9,N
1507273335.7,286046999.5,N
1507273355.6,286046997.8,N
1507273375.4,286046999.6,N
1507273395.2,286046999.0,N
1507273415.0,286046999.6,N
1507273416.0,286046999.6,N
1507273435.8,286047001.5,N
1507273455.6,286047004.4,N
1507273475.4,286046999.8,N
1507273495.3,286047002.0,N
1507273515.1,286046999.2,N
1507273535.8,286046996.5,N
1507273555.7,286047000.4,N
1507273575.5,286047003.9,N
1507273595.3,286047000.6,N
1507273615.2,286046995.6,N
1507273635.9,286046998.0,N
1507273655.7,286046999.6,N
1507273675.6,286046998.3,N
1507273695.4,286047000.0,N
1507273715.2,286047000.2,N
1507273735.1,286047001.1,N
1507273736.0,286047001.1,N
1507273755.8,286046995.4,N
1507273775.6,286046996.1,N
1507273795.5,286046992.9,Y
1507273815.3,286046994.2,P
1507273835.1,286046993.9,N
1507273855.9,286046996.1,N
1507273875.7,286046994.2,N
1507273895.5,286046997.9,N
1507273915.3,286046998.9,N
1507273935.2,286046999.3,N
1507273955.0,286046997.8,N
1507273955.9,286046997.8,N
1507273975.7,286047000.9,N
1507273995.6,286046999.3,N
1507274015.4,286046995.3,N
1507274035.2,286046998.7,N
1507274055.1,286047000.6,N
1507274056.0,286047000.6,N
1507274075.8,286046998.7,N
1507274095.6,286047002.7,N
1507274115.5,286046998.8,N
1507274135.3,286047001.2,N
1507274155.1,286047001.0,N
1507274175.9,286047000.3,N
1507274195.7,286047001.9,N
1507274215.5,286047006.0,N
1507274235.3,286047001.9,N
1507274255.2,286047001.9,N
1507274275.0,286046999.7,N
1507274275.9,286046999.7,N
1507274295.7,286047001.2,N
1507274315.6,286047004.0,N
1507274335.4,286047003.9,N
1507274355.2,286047003.2,N
1507274375.1,286047001.4,N
1507274376.0,286047001.4,N
1507274395.8,286047002.8,N
1507274415.6,286047002.2,N
1507274435.5,286047004.1,N
1507274455.3,286047003.5,N
1507274475.1,286047006.6,N
1507274495.9,286047005.9,N
1507274515.7,286047004.0,N
1507274535.5,286047001.7,N
1507274555.3,286046999.7,N
1507274575.2,286046998.7,N
1507274595.0,286046997.3,N
1507274595.9,286046997.3,N
1507274615.7,286046999.9,N
1507274635.6,286046999.6,N
1507274655.4,286046995.5,N
1507274675.2,286046995.0,N
1507274695.1,286046997.5,N
1507274696.0,286046997.5,N
1507274715.8,286046995.8,N
1507274735.6,286046996.7,N
1507274755.5,286046996.2,N
1507274775.3,286046994.6,N
1507274795.1,286046994.9,N
1507274815.9,286046994.4,N
1507274835.7,286046994.4,N
1507274855.5,286046995.8,N
1507274875.4,286046991.5,N
1507274895.2,286046991.8,N
1507274915.0,286046991.1,N
1507274915.9,286046991.1,N
1507274935.8,286046987.0,Y
1507274955.6,286046990.5,P
1507274975.4,286046989.0,N
1507274995.3,286046993.8,N
1507275015.1,286046993.7,N
1507275016.0,286046993.7,N
1507275035.8,286046989.1,Y
1507275055.7,286046995.1,P
1507275075.5,286046996.2,P
1507275095.3,286046999.5,N
1507275115.2,286047000.1,N
1507275135.9,286046998.1,N
1507275155.7,286047000.9,N
1507275175.6,286047002.3,N
1507275195.4,286047000.0,N
1507275215.2,286046997.6,N
1507275235.0,286046998.1,N
1507275235.9,286046998.1,N
1507275255.8,286046997.7,N
1507275275.6,286046993.7,N
1507275295.4,286046994.3,N
1507275315.3,286046994.2,N
1507275335.1,286046993.8,N
1507275355.8,286046994.3,N
1507275375.7,286046995.8,N
1507275395.5,286046995.4,N
1507275415.3,286046997.9,N
1507275435.2,286046998.9,N
1507275455.9,286046995.5,N
1507275475.7,286046996.8,N
1507275495.6,286047001.1,N
1507275515.4,286046998.8,N
1507275535.2,286047001.7,N
1507275555.0,286047001.6,N
1507275555.9,286047001.6,N
1507275575.8,286046999.9,N
1507275595.6,286047002.8,N
1507275615.4,286046996.5,N
1507275635.3,286046997.4,N
1507275655.1,286046995.2,N
1507275675.8,286046996.0,N
1507275695.7,286046995.1,N
1507275715.5,286046993.5,N
1507275735.3,286046996.3,N
1507275755.2,286046994.6,N
1507275775.9,286046994.3,N
1507275795.7,286046994.1,N
1507275815.6,286046997.5,N
1507275835.4,286046997.8,N
1507275855.2,286046997.3,N
1507275875.0,286047002.9,N
1507275876.0,286047002.9,N
1507275895.8,286047000.5,N
1507275915.6,286046999.3,N
1507275935.4,286046996.1,N
1507275955.3,286046998.3,N
1507275975.1,286046995.1,N
1507275995.8,286046997.6,N
1507276015.7,286046995.2,N
1507276035.5,286046994.6,N
1507276055.3,286046993.8,N
1507276075.2,286047001.2,N
1507276095.9,286046997.0,N
1507276115.7,286047000.9,N
1507276135.6,286046999.9,N
1507276155.4,286046997.5,N
1507276175.2,286047002.8,N
1507276195.1,286047005.6,N
1507276196.0,286047005.6,N
1507276215.8,286047001.3,N
1507276235.6,286047002.3,N
1507276255.4,286047003.5,N
1507276275.3,286046998.4,N
1507276295.1,286046995.3,N
1507276315.8,286046994.3,N
1507276335.7,286046994.0,N
1507276355.5,286046991.9,N
1507276375.3,286046993.9,N
1507276395.2,286046992.0,N
1507276415.9,286046996.8,N
1507276435.7,286046996.3,N
1507276455.6,286046996.5,N
1507276475.4,286046994.9,N
1507276495.2,286046997.4,N
1507276515.1,286046997.5,N
1507276516.0,286046997.5,N
1507276535.8,286046996.8,N
1507276555.6,286047000.6,N
1507276575.5,286046997.5,N
1507276595.3,286047000.5,N
1507276615.1,286046998.7,N
1507276635.9,286046998.4,N
1507276655.7,286047001.6,N
1507276675.5,286046999.6,N
1507276695.4,286047002.8,N
1507276715.2,286046998.8,N
1507276735.0,286046998.0,N
1507276735.9,286046998.0,N
1507276755.8,286046997.7,N
1507276775.6,286046998.2,N
1507276795.4,286047000.3,N
